Location: Unnamed
(48.6007°N, 2.4808°E)
Time: 14:34:13
(UTC+02:00)

CUBEBUG 2 - Visible Passes

Search period start: 28 March 2023 00:00
Search period end: 07 April 2023 00:00
Orbit: 581 x 685 km, 97.8° (Epoch: 27 March)

Date Brightness Start Highest point End Pass type
(mag) Time Alt. Az. Time Alt. Az. Time Alt. Az.
28 Mar ? 03:56:13 10° NNE 03:59:34 35° ENE 03:59:34 35° ENE visible
28 Mar ? 05:32:53 10° N 05:36:52 28° WNW 05:37:00 28° WNW visible
29 Mar ? 04:17:21 10° NNE 04:21:13 53° NE 04:21:13 53° NE visible
29 Mar ? 05:54:40 10° NNW 05:57:57 19° WNW 05:58:40 19° WNW visible
30 Mar ? 03:04:04 10° ENE 03:05:25 13° ENE 03:05:25 13° ENE visible
30 Mar ? 04:38:38 10° NNE 04:42:51 70° N 04:42:51 70° N visible
30 Mar ? 06:16:49 10° NNW 06:18:57 13° NW 06:20:18 12° WNW visible
31 Mar ? 03:24:21 10° NE 03:27:02 20° ENE 03:27:02 20° ENE visible
31 Mar ? 05:00:01 10° N 05:04:29 52° WNW 05:04:29 52° WNW visible
01 Apr ? 03:45:08 10° NNE 03:48:39 30° ENE 03:48:39 30° ENE visible
01 Apr ? 05:21:29 10° N 05:25:42 34° WNW 05:26:06 34° WNW visible
02 Apr ? 04:06:09 10° NNE 04:10:16 48° ENE 04:10:16 48° ENE visible
02 Apr ? 05:43:07 10° N 05:46:47 23° WNW 05:47:42 22° W visible
03 Apr ? 02:54:19 10° ENE 02:54:25 10° E 02:54:25 10° E visible
03 Apr ? 04:27:18 10° NNE 04:31:51 78° ENE 04:31:51 78° ENE visible
03 Apr ? 06:05:00 10° NNW 06:07:46 16° WNW 06:09:17 14° W visible
04 Apr ? 03:13:27 10° NE 03:15:59 16° E 03:15:59 16° E visible
04 Apr ? 04:48:35 10° N 04:53:13 66° WNW 04:53:25 65° W visible
04 Apr ? 06:27:41 10° NW 06:28:40 11° NW 06:29:40 10° WNW visible
05 Apr ? 03:33:58 10° NE 03:37:33 25° E 03:37:33 25° E visible
05 Apr ? 05:09:57 10° N 05:14:21 42° WNW 05:14:59 40° W visible
06 Apr ? 03:54:50 10° NNE 03:59:06 39° E 03:59:06 39° E visible
06 Apr ? 05:31:28 10° N 05:35:25 28° WNW 05:36:32 25° W visible
